EW4983 Weather Reports


Display with metric or nautical units.
time (UTC)temp
F
wind
direction
speed
MPH
gust
MPH
rain 1hr
in
rain 24hr
in
rain mn
in
humidity
%
barometer
mb
20260505111540 52 38 3.0 11.0 0.00 0.00 0.00 87 1005.7
20260505101534 53 65 7.0 16.0 0.00 0.00 0.00 84 1004.7
20260505100026 54 59 7.0 13.0 0.00 0.00 0.00 82 1004.8
20260505094522 56 12 7.0 16.0 0.00 0.00 0.00 80 1004.4
20260505093017 58 44 6.0 11.0 0.00 0.00 0.00 79 1004.4
20260505091515 59 46 4.0 10.0 0.00 0.00 0.00 77 1005.3
20260505090021 60 46 4.0 13.0 0.00 0.00 0.00 75 1005.2
20260505084506 62 333 7.0 20.0 0.00 0.00 0.00 82 1004.6
20260505083004 61 315 6.0 14.0 0.00 0.00 0.00 87 1004.0
20260505081602 61 203 0.0 1.0 0.00 0.00 0.00 85 1002.7
20260505080058 61 203 1.0 5.0 0.00 0.00 0.00 84 1002.4
20260505074557 62 200 2.0 7.0 0.00 0.00 0.00 84 1002.1
20260505073058 62 288 3.0 15.0 0.00 0.00 0.00 84 1002.1
20260505071553 62 274 11.0 19.0 0.00 0.00 0.00 83 1001.8
20260505070049 64 198 6.0 20.0 0.00 0.00 0.00 80 1000.3
20260505064546 66 155 13.0 23.0 0.00 0.00 0.00 73 1002.7
20260505063041 66 154 6.0 14.0 0.00 0.00 0.00 72 1003.2
20260505061539 66 184 5.0 9.0 0.00 0.00 0.00 72 1003.1
20260505060039 66 186 5.0 9.0 0.00 0.00 0.00 72 1003.0
20260505054543 66 159 5.0 12.0 0.00 0.00 0.00 72 1002.8
20260505053036 66 157 5.0 11.0 0.00 0.00 0.00 72 1003.0
20260505051532 66 151 4.0 8.0 0.00 0.00 0.00 73 1003.4
20260505041526 67 182 7.0 13.0 0.00 0.00 0.00 70 1002.6
20260505040029 67 149 6.0 12.0 0.00 0.00 0.00 70 1003.1
20260505034525 67 174 6.0 15.0 0.00 0.00 0.00 69 1003.1
20260505033034 68 200 9.0 14.0 0.00 0.00 0.00 67 1003.1
20260505031525 68 181 10.0 18.0 0.00 0.00 0.00 67 1002.9
20260505030023 69 194 7.0 17.0 0.00 0.00 0.00 66 1003.2
20260505024537 69 180 8.0 16.0 0.00 0.00 0.00 65 1003.1
20260505023033 69 184 7.0 15.0 0.00 0.00 0.00 66 1003.1
20260505021520 69 173 7.0 13.0 0.00 0.00 0.00 65 1003.0
20260505020021 70 173 7.0 19.0 0.00 0.00 0.00 64 1002.8
20260505014532 70 190 8.0 13.0 0.00 0.00 0.00 64 1002.5
20260505013019 70 152 9.0 18.0 0.00 0.00 0.00 64 1002.3
20260505011519 70 199 9.0 16.0 0.00 0.00 0.00 65 1002.4
20260505010020 71 196 6.0 13.0 0.00 0.00 0.00 66 1002.4
20260505004518 71 198 2.0 7.0 0.00 0.00 0.00 67 1002.5
20260505003016 72 177 2.0 6.0 0.00 0.00 0.00 66 1002.4
20260505001516 73 228 4.0 10.0 0.00 0.00 0.00 64 1002.3
20260505000016 73 187 5.0 12.0 0.00 0.00 0.00 62 1002.1
20260504234514 74 177 6.0 14.0 0.00 0.00 0.00 61 1002.0
20260504233013 74 200 5.0 11.0 0.00 0.00 0.00 61 1002.1
20260504231512 75 188 6.0 16.0 0.00 0.00 0.00 59 1002.1
20260504230013 77 207 6.0 17.0 0.00 0.00 0.00 57 1002.0
20260504224511 78 199 7.0 13.0 0.00 0.00 0.00 56 1001.9
20260504223011 77 226 9.0 21.0 0.00 0.00 0.00 57 1002.0
20260504221511 79 184 5.0 15.0 0.00 0.00 0.00 56 1002.0
20260504220008 79 188 9.0 15.0 0.00 0.00 0.00 55 1002.1
20260504214506 77 186 7.0 17.0 0.00 0.00 0.00 56 1002.3
20260504213006 79 214 8.0 22.0 0.00 0.00 0.00 57 1002.1
20260504211512 78 225 11.0 20.0 0.00 0.00 0.00 56 1002.3
20260504210003 79 211 6.0 19.0 0.00 0.00 0.00 58 1002.5
20260504204501 78 136 10.0 20.0 0.00 0.00 0.00 56 1002.5
20260504203135 77 242 9.0 18.0 0.00 0.00 0.00 56 1002.8
20260504201559 78 204 11.0 24.0 0.00 0.00 0.00 55 1003.0
20260504200057 78 225 9.0 25.0 0.00 0.00 0.00 57 1003.2
20260504194555 78 202 12.0 24.0 0.00 0.00 0.00 56 1003.3
20260504193053 77 230 8.0 21.0 0.00 0.00 0.00 56 1003.3
20260504191554 77 207 10.0 19.0 0.00 0.00 0.00 59 1003.4
20260504190054 77 232 13.0 23.0 0.00 0.00 0.00 55 1003.6
20260504184548 77 211 13.0 24.0 0.00 0.00 0.00 58 1003.7
20260504183046 76 215 10.0 19.0 0.00 0.00 0.00 58 1003.9
20260504181544 76 194 9.0 25.0 0.00 0.00 0.00 58 1004.0
20260504180042 76 225 9.0 23.0 0.00 0.00 0.00 59 1004.1
20260504174541 75 255 13.0 19.0 0.00 0.00 0.00 57 1004.2
20260504173041 75 180 9.0 23.0 0.00 0.00 0.00 57 1004.2
20260504171539 75 175 9.0 17.0 0.00 0.00 0.00 58 1004.3